Location: Borgo
(42.3939°N, 9.2791°E)
Time: 02:07:45
(UTC+00:00)

EXPRESS MD2 - Pass Details

Date: 24 January 2021
Orbit: 260 x 3982 km, 49.9° (Epoch: 08 March)

Event Time Altitude Azimuth Distance (km) Brightness Sun altitude
Rises 16:58:55 0° 299° (WNW) 5,588 9.1 -6.3°
Reaches altitude 10° 17:03:33 10° 299° (WNW) 3,928 8.3 -7.1°
Maximum altitude 17:12:33 90° 21° (NNE) 884 4.3 -8.7°
Drops below altitude 10° 17:16:44 10° 121° (ESE) 1,894 5.7 -9.4°
Enters shadow 17:17:51 - 121° (ESE) 2,348 6.1 -9.6°
